Tracking 26922 objects as of 31-Jan-2023
HD Live streaming from Space Station
objects crossing your sky now

DIAMOND RED

Track DIAMOND RED now!
10-day predictions


NORAD ID: 42783
Int'l Code: 2017-036U
Perigee: 469.3 km
Apogee: 480.0 km
Inclination: 97.2 °
Period: 93.9 minutes
Semi major axis: 6845 km
RCS: Unknown
Launch date: June 23, 2017
Source: Australia (AUS)
Launch site: SRIHARIKOTA (SRI)
Your satellite tracking list
Your tracking list is empty




NASA's NSSDC Master Catalog

Two Line Element Set (TLE):
1 42783U 17036U   23031.04653829  .00014161  00000-0  44893-3 0  9991
2 42783  97.1731  69.3059 0007833 231.2457 128.8087 15.32783230311734
Source of the keplerian elements: AFSPC